Acapulco, Mexico

12:59 AM CST on March 27, 2017 (GMT -0600)
Gen Juan N Alvarez International

Weather History for MMAA - December, 2012

Change the Weather History Date:

Thursday, December 6, 2012

  Actual Average Record
Temperature  
Mean Temperature 81 °F -  
Max Temperature 89 °F 89 °F 96 °F (2015)
Min Temperature 73 °F 71 °F 66 °F (1999)
Cooling Degree Days 16    
Growing Degree Days 31 (Base 50)    
Moisture  
Dew Point 74 °F    
Average Humidity 76    
Maximum Humidity 92    
Minimum Humidity 52    
Precipitation  
Precipitation 0.00 in 0.02 in - ()
Sea Level Pressure  
Sea Level Pressure 29.86 in    
Wind  
Wind Speed 3 mph ()    
Max Wind Speed 20 mph    
Max Gust Speed -    
Visibility 7.5 miles    
Events      
Averages and records for this station are not official NWS values.
T = Trace of Precipitation, MM = Missing Value Source: Averaged Metar Reports

Daily Weather History Graph

Daily Weather History Graph

Search for Another Location

Airport or City:

Trip Planner

Search our weather history database for the weather conditions in past years. The results will help you decide how hot, cold, wet, or windy it might be!

Date:

Astronomy

Dec. 06, 2012 Rise Set
Actual Time 6:55 AM CST 6:05 PM CST
Civil Twilight 6:31 AM CST 6:28 PM CST
Nautical Twilight 6:04 AM CST 6:55 PM CST
Astronomical Twilight 5:38 AM CST 7:22 PM CST
Moon 12:11 AM CST (12/6) 12:39 PM CST (12/6)
Length of Visible Light 11h 56m
Length of Day
11h 10m
Waning Gibbous, 49% of the Moon is Illuminated
Dec 6
Waning Gibbous
Dec 13
New
Dec 19
First Quarter
Dec 28
Full
Jan 4
Last Quarter

Hourly Weather History & Observations

Time (CST) Temp. Heat Index Dew Point Humidity Pressure Visibility Wind Dir Wind Speed Gust Speed Precip Events Conditions
12:45 AM 78.8 °F - 75.2 °F 89% 29.91 in 7.0 mi Calm Calm - N/A   Partly Cloudy
1:45 AM 78.8 °F - 73.4 °F 83% 29.91 in 7.0 mi Calm Calm - N/A   Partly Cloudy
2:45 AM 75 °F - 73 °F 92% 29.89 in 6 mi North 2.2 mph - -  
2:45 AM 78.8 °F - 73.4 °F 83% 29.91 in 7.0 mi Calm Calm - N/A   Partly Cloudy
3:45 AM 78.8 °F - 73.4 °F 83% 29.89 in 7.0 mi Calm Calm - N/A   Partly Cloudy
4:45 AM 78.8 °F - 73.4 °F 83% 29.89 in 7.0 mi Calm Calm - N/A   Partly Cloudy
5:45 AM 74 °F - 71 °F 88% 29.87 in 6 mi North 2.2 mph - -   Scattered Clouds
5:45 AM 77.0 °F - 73.4 °F 89% 29.89 in 7.0 mi Calm Calm - N/A   Partly Cloudy
6:45 AM 77.0 °F - 73.4 °F 89% 29.88 in 7.0 mi Calm Calm - N/A   Partly Cloudy
7:45 AM 77.0 °F - 73.4 °F 89% 29.90 in 7.0 mi Calm Calm - N/A   Clear
8:45 AM 78.8 °F - 73.4 °F 83% 29.89 in 7.0 mi Calm Calm - N/A   Clear
8:50 AM 77 °F - 72 °F 80% 29.91 in 12 mi South 2.2 mph - -   Scattered Clouds
9:42 AM 80.6 °F 87.1 °F 77.0 °F 89% 29.92 in 6.0 mi Calm Calm - N/A   Clear
10:46 AM 84.2 °F 94.1 °F 77.0 °F 79% 29.90 in 6.0 mi Calm Calm - N/A   Clear
11:45 AM 87 °F - 72 °F 52% 29.87 in 12 mi NE 13.4 mph - -   Clear
11:48 AM 87.8 °F 99.7 °F 77.0 °F 70% 29.86 in 6.0 mi WSW 5.8 mph - N/A   Clear
11:50 AM 87 °F - 73 °F 54% 29.79 in 12 mi NE 20.1 mph - -   Scattered Clouds
12:43 PM 89.6 °F 99.8 °F 75.2 °F 62% 29.85 in 6.0 mi WSW 9.2 mph - N/A   Clear
1:42 PM 89.6 °F 99.8 °F 75.2 °F 62% 29.82 in 6.0 mi West 9.2 mph - N/A   Clear
2:47 PM 89.6 °F 99.8 °F 75.2 °F 62% 29.82 in 6.0 mi WSW 9.2 mph - N/A   Clear
2:50 PM 87 °F - 73 °F 54% 29.79 in 12 mi NE 20.1 mph - -   Scattered Clouds
3:46 PM 87.8 °F 97.6 °F 75.2 °F 66% 29.79 in 7.0 mi WSW 9.2 mph - N/A   Scattered Clouds
4:50 PM 87.8 °F 97.6 °F 75.2 °F 66% 29.79 in 7.0 mi SW 9.2 mph - N/A   Scattered Clouds
5:46 PM 86.0 °F 95.1 °F 75.2 °F 70% 29.81 in 7.0 mi Calm Calm - N/A   Scattered Clouds
6:00 PM 83 °F - 74 °F 66% 29.82 in 12 mi East 17.9 mph - -   Partly Cloudy
6:46 PM 84.2 °F 92.3 °F 75.2 °F 74% 29.81 in 7.0 mi Calm Calm - N/A   Scattered Clouds
7:43 PM 84.2 °F 92.3 °F 75.2 °F 74% 29.83 in 7.0 mi Calm Calm - N/A   Partly Cloudy
8:43 PM 82.4 °F 89.5 °F 75.2 °F 79% 29.86 in 7.0 mi Calm Calm - N/A   Clear
8:50 PM 77 °F - 73 °F 85% 29.87 in 6 mi SE 2.2 mph - -   Scattered Clouds
9:43 PM 78.8 °F - 73.4 °F 83% 29.85 in 7.0 mi Calm Calm - N/A   Clear
10:43 PM 78.8 °F - 73.4 °F 83% 29.86 in 7.0 mi Calm Calm - N/A   Clear
11:43 PM 77.0 °F - 71.6 °F 83% 29.86 in 7.0 mi Calm Calm - N/A   Clear